Marathon, FL

8:38 PM EST on February 05, 2016 (GMT -0500)
Florida Keys Marathon

Weather History for KMTH - March, 2014

Change the Weather History Date:

Sunday, March 16, 2014

  Actual Average Record
Temperature  
Mean Temperature 79 °F 74 °F  
Max Temperature 83 °F 79 °F 88 °F (2008)
Min Temperature 74 °F 68 °F 54 °F (1999)
Degree Days  
Heating Degree Days 0 0  
Month to date heating degree days 0 0  
Since 1 July heating degree days 35 75  
Cooling Degree Days 14 9  
Month to date cooling degree days 153 134  
Year to date cooling degree days 659 516  
Growing Degree Days 28 (Base 50)    
Moisture  
Dew Point 65 °F    
Average Humidity 67    
Maximum Humidity 76    
Minimum Humidity 58    
Precipitation  
Precipitation 0.00 in 0.07 in 0.13 in (2007)
Month to date precipitation 1.09 1.21  
Year to date precipitation 4.78 5.03  
Snow  
Snow 0.00 in - - ()
Month to date snowfall 0.0  
Since 1 July snowfall 0.0  
Snow Depth 0.00 in    
Sea Level Pressure  
Sea Level Pressure 29.92 in    
Wind  
Wind Speed 10 mph (SE)    
Max Wind Speed 15 mph    
Max Gust Speed 23 mph    
Visibility 10 miles    
Events      
T = Trace of Precipitation, MM = Missing Value Source: NWS Daily Summary

Daily Weather History Graph

Daily Weather History Graph

Search for Another Location

Airport or City:

Trip Planner

Search our weather history database for the weather conditions in past years. The results will help you decide how hot, cold, wet, or windy it might be!

Date:

Astronomy

Mar. 16, 2014 Rise Set
Actual Time 7:32 AM EDT 7:33 PM EDT
Civil Twilight 7:09 AM EDT 7:56 PM EDT
Nautical Twilight 6:43 AM EDT 8:22 PM EDT
Astronomical Twilight 6:16 AM EDT 8:49 PM EDT
Moon 7:44 PM EDT (3/16) 7:17 AM EDT (3/16)
Length of Visible Light 12h 46m
Length of Day
12h 01m
Full, 100% of the Moon is Illuminated
Mar 16
Full
Mar 16
Full
Mar 23
Last Quarter
Mar 30
New
Apr 7
First Quarter

Hourly Weather History & Observations

Time (EDT) Temp. Heat Index Dew Point Humidity Pressure Visibility Wind Dir Wind Speed Gust Speed Precip Events Conditions
12:53 AM 73.9 °F - 61.0 °F 64% 30.02 in 10.0 mi East 9.2 mph - N/A   Clear
1:53 AM 73.9 °F - 61.0 °F 64% 30.01 in 10.0 mi ESE 8.1 mph - N/A   Clear
2:53 AM 73.9 °F - 63.0 °F 68% 29.99 in 10.0 mi SE 9.2 mph - N/A   Clear
3:53 AM 75.0 °F - 62.1 °F 64% 29.97 in 10.0 mi SE 8.1 mph - N/A   Mostly Cloudy
4:53 AM 75.0 °F - 63.0 °F 66% 29.96 in 10.0 mi SE 8.1 mph 16.1 mph N/A   Mostly Cloudy
5:53 AM 75.0 °F - 64.0 °F 69% 29.96 in 10.0 mi ESE 9.2 mph 16.1 mph N/A   Scattered Clouds
6:53 AM 73.9 °F - 64.0 °F 71% 29.96 in 10.0 mi SE 9.2 mph - N/A   Partly Cloudy
7:53 AM 75.0 °F - 64.9 °F 71% 29.97 in 10.0 mi SE 11.5 mph 17.3 mph N/A   Clear
8:53 AM 75.9 °F - 64.0 °F 67% 29.98 in 10.0 mi ESE 9.2 mph 17.3 mph N/A   Clear
9:53 AM 78.1 °F - 66.0 °F 66% 29.98 in 10.0 mi ESE 10.4 mph 17.3 mph N/A   Clear
10:53 AM 79.0 °F - 64.9 °F 62% 29.97 in 10.0 mi SE 13.8 mph 20.7 mph N/A   Clear
11:53 AM 80.1 °F 81.9 °F 64.9 °F 60% 29.97 in 10.0 mi SE 11.5 mph 19.6 mph N/A   Clear
12:53 PM 81.0 °F 82.7 °F 64.9 °F 58% 29.95 in 10.0 mi SE 12.7 mph 20.7 mph N/A   Clear
1:53 PM 81.0 °F 82.7 °F 64.9 °F 58% 29.92 in 10.0 mi SSE 11.5 mph 23.0 mph N/A   Mostly Cloudy
2:53 PM 82.9 °F 85.0 °F 66.0 °F 56% 29.90 in 10.0 mi SE 10.4 mph 19.6 mph N/A   Partly Cloudy
3:53 PM 82.0 °F 84.1 °F 66.0 °F 58% 29.87 in 10.0 mi SE 8.1 mph - N/A   Clear
4:53 PM 81.0 °F 83.3 °F 66.9 °F 62% 29.84 in 10.0 mi SE 9.2 mph 18.4 mph N/A   Clear
5:53 PM 79.0 °F - 66.0 °F 64% 29.82 in 10.0 mi SE 11.5 mph 18.4 mph N/A   Clear
6:53 PM 78.1 °F - 66.9 °F 68% 29.82 in 10.0 mi SE 10.4 mph 20.7 mph N/A   Clear
7:53 PM 77.0 °F - 66.9 °F 71% 29.83 in 10.0 mi SE 10.4 mph 17.3 mph N/A   Clear
8:53 PM 77.0 °F - 69.1 °F 76% 29.85 in 10.0 mi SE 8.1 mph - N/A   Clear
9:53 PM 77.0 °F - 69.1 °F 76% 29.86 in 10.0 mi SE 9.2 mph - N/A   Clear
10:53 PM 77.0 °F - 69.1 °F 76% 29.86 in 10.0 mi SE 10.4 mph - N/A   Partly Cloudy
11:53 PM 77.0 °F - 70.0 °F 79% 29.86 in 10.0 mi SSE 8.1 mph 17.3 mph N/A   Partly Cloudy